N420TC KORL-KATL

Flight info

Callsign N420TC
Flight time 1h 30m
Altitude 40000
Route TOLLZ RDSOX JFRYS AMORY Q110 DAWWN BEORN HOBTT3
Aircraft CL60/M-SADE3FGHIJ3J4J7P2RWXY/HB1D1

Departure

Time 2026-05-05 00:36
Airport Orlando Executive Airport (KORL)

Arrival

Time 2026-05-05 02:07
Airport Hartsfield Jackson Atlanta International Airport (KATL)
Time Latitude Longitude Altitude Speed Heading
2026-05-05 00:10 28.54793 -81.33743 109 ft 0 kts 306°
2026-05-05 00:28 28.54800 -81.33755 109 ft 0 kts 307°
2026-05-05 00:28 28.54808 -81.33774 109 ft 4 kts 275°
2026-05-05 00:29 28.54776 -81.33805 109 ft 6 kts 194°
2026-05-05 00:29 28.54727 -81.33789 109 ft 8 kts 131°
2026-05-05 00:29 28.54681 -81.33726 109 ft 11 kts 132°
2026-05-05 00:29 28.54623 -81.33649 108 ft 14 kts 130°
2026-05-05 00:30 28.54579 -81.33594 109 ft 3 kts 157°
2026-05-05 00:30 28.54543 -81.33639 107 ft 12 kts 248°
2026-05-05 00:30 28.54512 -81.33721 106 ft 12 kts 245°
2026-05-05 00:30 28.54475 -81.33817 106 ft 9 kts 248°
2026-05-05 00:31 28.54444 -81.33898 106 ft 10 kts 247°
2026-05-05 00:31 28.54420 -81.33961 106 ft 4 kts 242°
2026-05-05 00:31 28.54396 -81.33974 106 ft 5 kts 167°
2026-05-05 00:31 28.54368 -81.33961 106 ft 0 kts 157°
2026-05-05 00:35 28.54359 -81.33956 106 ft 6 kts 157°
2026-05-05 00:35 28.54304 -81.33928 106 ft 9 kts 143°
2026-05-05 00:36 28.54329 -81.33808 106 ft 44 kts 68°
2026-05-05 00:36 28.54607 -81.33076 124 ft 147 kts 68°
2026-05-05 00:36 28.55080 -81.31847 652 ft 183 kts 69°
2026-05-05 00:36 28.55607 -81.30479 1419 ft 199 kts 66°
2026-05-05 00:37 28.56428 -81.29058 1780 ft 231 kts 54°
2026-05-05 00:37 28.57468 -81.27657 2013 ft 231 kts 53°
2026-05-05 00:37 28.58520 -81.26238 1791 ft 233 kts 53°
2026-05-05 00:37 28.59543 -81.24847 1514 ft 227 kts 53°
2026-05-05 00:38 28.60540 -81.23481 1487 ft 219 kts 53°
2026-05-05 00:38 28.61517 -81.22131 1481 ft 223 kts 55°
2026-05-05 00:38 28.62352 -81.20646 1482 ft 222 kts 63°
2026-05-05 00:38 28.63105 -81.19117 1485 ft 222 kts 63°
2026-05-05 00:39 28.63862 -81.17572 1485 ft 222 kts 63°
2026-05-05 00:39 28.64408 -81.15951 1612 ft 215 kts 80°
2026-05-05 00:39 28.64641 -81.14271 2190 ft 219 kts 83°
2026-05-05 00:39 28.64858 -81.12546 2817 ft 224 kts 83°
2026-05-05 00:40 28.65080 -81.10781 3446 ft 228 kts 83°
2026-05-05 00:40 28.65304 -81.09000 4071 ft 232 kts 83°
2026-05-05 00:40 28.65646 -81.07194 4706 ft 238 kts 68°
2026-05-05 00:40 28.66690 -81.05711 5368 ft 249 kts 35°
2026-05-05 00:41 28.68336 -81.05070 6031 ft 258 kts
2026-05-05 00:41 28.70092 -81.05510 6662 ft 262 kts 332°
2026-05-05 00:41 28.71573 -81.06751 6954 ft 262 kts 310°
2026-05-05 00:41 28.72373 -81.08602 7007 ft 257 kts 279°
2026-05-05 00:42 28.72354 -81.10638 7006 ft 255 kts 264°
2026-05-05 00:42 28.72142 -81.12652 7043 ft 268 kts 263°
2026-05-05 00:42 28.71898 -81.14822 8179 ft 281 kts 263°
2026-05-05 00:42 28.71651 -81.16904 9972 ft 266 kts 263°
2026-05-05 00:43 28.71337 -81.18909 11382 ft 264 kts 255°
2026-05-05 00:43 28.70653 -81.20905 12247 ft 283 kts 248°
2026-05-05 00:43 28.69843 -81.22992 13249 ft 295 kts 248°
2026-05-05 00:43 28.69017 -81.25127 14427 ft 299 kts 249°
2026-05-05 00:44 28.68171 -81.27312 15351 ft 308 kts 249°
2026-05-05 00:44 28.67301 -81.29560 15803 ft 312 kts 249°
2026-05-05 00:44 28.66426 -81.31812 15972 ft 310 kts 249°
2026-05-05 00:44 28.65553 -81.34051 15994 ft 307 kts 249°
2026-05-05 00:45 28.64689 -81.36268 16019 ft 317 kts 249°
2026-05-05 00:45 28.63777 -81.38605 16841 ft 327 kts 249°
2026-05-05 00:45 28.62873 -81.40911 18244 ft 317 kts 249°
2026-05-05 00:45 28.61995 -81.43153 19493 ft 310 kts 250°
2026-05-05 00:46 28.61117 -81.45395 20527 ft 310 kts 250°
2026-05-05 00:46 28.60233 -81.47649 21439 ft 312 kts 250°
2026-05-05 00:46 28.59351 -81.49899 22306 ft 315 kts 250°
2026-05-05 00:46 28.58461 -81.52168 23078 ft 319 kts 251°
2026-05-05 00:47 28.57547 -81.54493 23896 ft 323 kts 251°
2026-05-05 00:47 28.56610 -81.56876 24740 ft 326 kts 251°
2026-05-05 00:47 28.55651 -81.59310 25565 ft 328 kts 251°
2026-05-05 00:47 28.54716 -81.61684 26347 ft 330 kts 251°
2026-05-05 00:48 28.53773 -81.64075 27062 ft 333 kts 252°
2026-05-05 00:48 28.52813 -81.66510 27738 ft 336 kts 251°
2026-05-05 00:48 28.51834 -81.68990 28408 ft 339 kts 251°
2026-05-05 00:48 28.50861 -81.71453 29076 ft 342 kts 251°
2026-05-05 00:49 28.49894 -81.73900 29708 ft 343 kts 252°
2026-05-05 00:49 28.48915 -81.76375 30280 ft 346 kts 252°
2026-05-05 00:49 28.47918 -81.78896 30784 ft 350 kts 252°
2026-05-05 00:49 28.46913 -81.81437 31247 ft 355 kts 253°
2026-05-05 00:50 28.45896 -81.84007 31737 ft 358 kts 252°
2026-05-05 00:50 28.44878 -81.86576 32169 ft 361 kts 253°
2026-05-05 00:50 28.43854 -81.89185 32564 ft 364 kts 255°
2026-05-05 00:50 28.43074 -81.91901 32985 ft 360 kts 263°
2026-05-05 00:51 28.42714 -81.94706 33360 ft 358 kts 272°
2026-05-05 00:51 28.42689 -81.97529 33771 ft 358 kts 276°
2026-05-05 00:51 28.42753 -82.00352 34327 ft 356 kts 275°
2026-05-05 00:51 28.42810 -82.03114 34989 ft 352 kts 275°
2026-05-05 00:52 28.42864 -82.05889 35587 ft 348 kts 276°
2026-05-05 00:52 28.42915 -82.08622 36226 ft 343 kts 275°
2026-05-05 00:52 28.42964 -82.11317 36723 ft 341 kts 275°
2026-05-05 00:52 28.43011 -82.13996 37212 ft 339 kts 275°
2026-05-05 00:53 28.43056 -82.16640 37633 ft 337 kts 275°
2026-05-05 00:53 28.43100 -82.19308 38004 ft 337 kts 275°
2026-05-05 00:53 28.43144 -82.21976 38346 ft 336 kts 275°
2026-05-05 00:53 28.43185 -82.24622 38711 ft 336 kts 275°
2026-05-05 00:54 28.43226 -82.27293 39036 ft 335 kts 275°
2026-05-05 00:54 28.43266 -82.29916 39341 ft 335 kts 275°
2026-05-05 00:54 28.43305 -82.32592 39657 ft 334 kts 274°
2026-05-05 00:54 28.43343 -82.35210 39902 ft 334 kts 274°
2026-05-05 00:55 28.43385 -82.37885 40026 ft 337 kts 276°
2026-05-05 00:55 28.44296 -82.43138 40028 ft 344 kts 291°
2026-05-05 00:56 28.46768 -82.47896 40024 ft 358 kts 307°
2026-05-05 00:56 28.50670 -82.51683 40021 ft 377 kts 323°
2026-05-05 00:57 28.55431 -82.54468 40021 ft 387 kts 327°
2026-05-05 00:57 28.60291 -82.57220 40021 ft 393 kts 327°
2026-05-05 00:58 28.65192 -82.60005 40029 ft 397 kts 327°
2026-05-05 00:58 28.70173 -82.62841 40024 ft 399 kts 327°
2026-05-05 00:59 28.75145 -82.65678 40026 ft 398 kts 327°
2026-05-05 00:59 28.80108 -82.68516 40022 ft 397 kts 327°
2026-05-05 01:00 28.85022 -82.71333 40022 ft 396 kts 327°
2026-05-05 01:00 28.89988 -82.74182 40022 ft 397 kts 327°
2026-05-05 01:01 28.94906 -82.77011 40019 ft 397 kts 327°
2026-05-05 01:01 28.99844 -82.79853 40020 ft 397 kts 327°
2026-05-05 01:02 29.04786 -82.82702 40013 ft 396 kts 327°
2026-05-05 01:02 29.09732 -82.85555 40012 ft 395 kts 327°
2026-05-05 01:03 29.14658 -82.88402 40018 ft 395 kts 327°
2026-05-05 01:03 29.19582 -82.91251 40012 ft 395 kts 327°
2026-05-05 01:04 29.24360 -82.94283 40022 ft 391 kts 321°
2026-05-05 01:04 29.31250 -82.99365 40034 ft 391 kts 321°
2026-05-05 01:05 29.35894 -83.02803 40022 ft 391 kts 322°
2026-05-05 01:05 29.40504 -83.06184 40030 ft 390 kts 322°
2026-05-05 01:06 29.45089 -83.09535 40035 ft 391 kts 322°
2026-05-05 01:06 29.49667 -83.12888 40029 ft 390 kts 322°
2026-05-05 01:07 29.54275 -83.16267 40037 ft 390 kts 322°
2026-05-05 01:07 29.58853 -83.19637 40021 ft 389 kts 323°
2026-05-05 01:08 29.63389 -83.22971 40034 ft 387 kts 322°
2026-05-05 01:08 29.67946 -83.26327 40027 ft 387 kts 322°
2026-05-05 01:09 29.72468 -83.29661 40026 ft 388 kts 323°
2026-05-05 01:09 29.77003 -83.33007 40027 ft 386 kts 323°
2026-05-05 01:10 29.81535 -83.36356 40022 ft 385 kts 323°
2026-05-05 01:10 29.86022 -83.39677 40029 ft 383 kts 322°
2026-05-05 01:11 29.90516 -83.43005 40037 ft 383 kts 322°
2026-05-05 01:11 29.94990 -83.46324 40042 ft 383 kts 323°
2026-05-05 01:12 29.99464 -83.49647 40039 ft 381 kts 323°
2026-05-05 01:12 30.04030 -83.53040 40041 ft 382 kts 323°
2026-05-05 01:13 30.08525 -83.56342 40047 ft 380 kts 325°
2026-05-05 01:13 30.13038 -83.59628 40048 ft 380 kts 325°
2026-05-05 01:14 30.17532 -83.62924 40035 ft 379 kts 325°
2026-05-05 01:14 30.21986 -83.66191 40047 ft 379 kts 325°
2026-05-05 01:15 30.26477 -83.69487 40034 ft 379 kts 323°
2026-05-05 01:15 30.30914 -83.72760 40033 ft 379 kts 326°
2026-05-05 01:16 30.35378 -83.76023 40035 ft 376 kts 326°
2026-05-05 01:16 30.39817 -83.79260 40038 ft 375 kts 323°
2026-05-05 01:17 30.44195 -83.82615 40033 ft 377 kts 323°
2026-05-05 01:17 30.48605 -83.85967 40029 ft 376 kts 323°
2026-05-05 01:18 30.52994 -83.89201 40041 ft 373 kts 325°
2026-05-05 01:18 30.57381 -83.92419 40034 ft 374 kts 323°
2026-05-05 01:19 30.61786 -83.95785 40034 ft 379 kts 323°
2026-05-05 01:19 30.66319 -83.99230 39728 ft 389 kts 323°
2026-05-05 01:20 30.68618 -84.00971 39477 ft 390 kts 323°
2026-05-05 01:20 30.70867 -84.02670 39239 ft 388 kts 324°
2026-05-05 01:20 30.73149 -84.04393 38990 ft 386 kts 324°
2026-05-05 01:20 30.75437 -84.06119 38741 ft 384 kts 323°
2026-05-05 01:21 30.77694 -84.07822 38492 ft 384 kts 324°
2026-05-05 01:21 30.78996 -84.08804 38349 ft 384 kts 324°
2026-05-05 01:21 30.80101 -84.09637 38229 ft 384 kts 324°
2026-05-05 01:22 30.81138 -84.10420 38115 ft 384 kts 324°
2026-05-05 01:22 30.82103 -84.11147 38009 ft 385 kts 324°
2026-05-05 01:22 30.84364 -84.12852 37765 ft 385 kts 324°
2026-05-05 01:23 30.86600 -84.14537 37519 ft 385 kts 323°
2026-05-05 01:23 30.88874 -84.16251 37273 ft 385 kts 323°
2026-05-05 01:23 30.91115 -84.17940 37027 ft 385 kts 324°
2026-05-05 01:23 30.93394 -84.19659 36777 ft 385 kts 324°
2026-05-05 01:24 30.95645 -84.21355 36529 ft 385 kts 324°
2026-05-05 01:24 30.97872 -84.23035 36280 ft 385 kts 323°
2026-05-05 01:24 31.00142 -84.24747 36029 ft 386 kts 323°
2026-05-05 01:24 31.02398 -84.26449 35783 ft 387 kts 324°
2026-05-05 01:25 31.04646 -84.28147 35539 ft 387 kts 323°
2026-05-05 01:25 31.06927 -84.29870 35288 ft 387 kts 323°
2026-05-05 01:25 31.09179 -84.31571 35052 ft 387 kts 323°
2026-05-05 01:25 31.11458 -84.33295 34806 ft 388 kts 324°
2026-05-05 01:26 31.13728 -84.35011 34561 ft 388 kts 324°
2026-05-05 01:26 31.15992 -84.36725 34316 ft 389 kts 323°
2026-05-05 01:26 31.18263 -84.38444 34076 ft 390 kts 323°
2026-05-05 01:26 31.20562 -84.40186 34032 ft 389 kts 323°
2026-05-05 01:27 31.25092 -84.43620 34033 ft 391 kts 323°
2026-05-05 01:27 31.29683 -84.47105 34037 ft 392 kts 323°
2026-05-05 01:28 31.34256 -84.50581 34030 ft 392 kts 323°
2026-05-05 01:28 31.38828 -84.54060 34034 ft 392 kts 323°
2026-05-05 01:29 31.43414 -84.57553 34035 ft 391 kts 323°
2026-05-05 01:29 31.48001 -84.61004 34032 ft 393 kts 326°
2026-05-05 01:30 31.53020 -84.63734 34032 ft 397 kts 332°
2026-05-05 01:30 31.58118 -84.66232 34043 ft 396 kts 331°
2026-05-05 01:31 31.63193 -84.68733 34044 ft 394 kts 331°
2026-05-05 01:31 31.68241 -84.71231 34042 ft 395 kts 331°
2026-05-05 01:32 31.73314 -84.73748 34040 ft 395 kts 331°
2026-05-05 01:32 31.78381 -84.76276 34035 ft 394 kts 332°
2026-05-05 01:33 31.83425 -84.78803 34036 ft 392 kts 331°
2026-05-05 01:33 31.88443 -84.81329 34038 ft 394 kts 331°
2026-05-05 01:34 31.93526 -84.83871 34032 ft 395 kts 332°
2026-05-05 01:34 31.98618 -84.86289 34038 ft 394 kts 332°
2026-05-05 01:35 32.03713 -84.88711 34041 ft 394 kts 332°
2026-05-05 01:35 32.08821 -84.91147 34040 ft 394 kts 332°
2026-05-05 01:36 32.13932 -84.93578 34037 ft 395 kts 332°
2026-05-05 01:36 32.19055 -84.95985 34035 ft 395 kts 333°
2026-05-05 01:37 32.24176 -84.98395 34035 ft 395 kts 332°
2026-05-05 01:37 32.29256 -85.00854 34030 ft 395 kts 332°
2026-05-05 01:38 32.34378 -85.03335 33888 ft 399 kts 332°
2026-05-05 01:38 32.36974 -85.04581 33412 ft 404 kts 333°
2026-05-05 01:38 32.39604 -85.05746 33002 ft 403 kts 333°
2026-05-05 01:39 32.42214 -85.06895 32412 ft 400 kts 333°
2026-05-05 01:39 32.44773 -85.08131 31908 ft 396 kts 332°
2026-05-05 01:39 32.47300 -85.09388 31366 ft 388 kts 332°
2026-05-05 01:39 32.49744 -85.10599 30874 ft 380 kts 332°
2026-05-05 01:40 32.52158 -85.11793 30373 ft 374 kts 332°
2026-05-05 01:40 32.54538 -85.12968 29888 ft 368 kts 332°
2026-05-05 01:40 32.56893 -85.14130 29401 ft 362 kts 332°
2026-05-05 01:40 32.59218 -85.15276 28920 ft 356 kts 332°
2026-05-05 01:41 32.61470 -85.16383 28451 ft 351 kts 332°
2026-05-05 01:41 32.63725 -85.17492 27993 ft 346 kts 332°
2026-05-05 01:41 32.65937 -85.18579 27529 ft 342 kts 332°
2026-05-05 01:41 32.68105 -85.19644 27079 ft 338 kts 332°
2026-05-05 01:42 32.70258 -85.20701 26642 ft 334 kts 332°
2026-05-05 01:42 32.72419 -85.21761 26197 ft 332 kts 333°
2026-05-05 01:42 32.74558 -85.22811 25748 ft 334 kts 333°
2026-05-05 01:42 32.76705 -85.23865 25314 ft 335 kts 333°
2026-05-05 01:43 32.78944 -85.24688 24859 ft 340 kts 347°
2026-05-05 01:43 32.81342 -85.24695 24387 ft 348 kts 360°
2026-05-05 01:43 32.83754 -85.24374 23915 ft 348 kts
2026-05-05 01:43 32.86160 -85.24068 23462 ft 347 kts
2026-05-05 01:44 32.88548 -85.23768 23005 ft 346 kts
2026-05-05 01:44 32.90955 -85.23467 22543 ft 345 kts
2026-05-05 01:44 32.93345 -85.23171 22091 ft 345 kts
2026-05-05 01:44 32.95710 -85.22878 21631 ft 343 kts
2026-05-05 01:45 32.98100 -85.22585 21171 ft 342 kts
2026-05-05 01:45 33.00433 -85.22221 20726 ft 344 kts
2026-05-05 01:45 33.02671 -85.21175 20232 ft 350 kts 27°
2026-05-05 01:45 33.04587 -85.19327 19728 ft 353 kts 44°
2026-05-05 01:46 33.06231 -85.17179 19240 ft 350 kts 46°
2026-05-05 01:46 33.07838 -85.15067 18814 ft 347 kts 45°
2026-05-05 01:46 33.09475 -85.12923 18347 ft 346 kts 46°
2026-05-05 01:46 33.11082 -85.10820 17885 ft 345 kts 46°
2026-05-05 01:47 33.12712 -85.08689 17370 ft 344 kts 47°
2026-05-05 01:47 33.14294 -85.06621 16940 ft 339 kts 46°
2026-05-05 01:47 33.15886 -85.04541 16489 ft 336 kts 46°
2026-05-05 01:47 33.17451 -85.02497 16041 ft 335 kts 46°
2026-05-05 01:48 33.19029 -85.00436 15604 ft 332 kts 47°
2026-05-05 01:48 33.20570 -84.98424 15173 ft 330 kts 47°
2026-05-05 01:48 33.22118 -84.96401 14720 ft 328 kts 47°
2026-05-05 01:48 33.23651 -84.94399 14314 ft 325 kts 47°
2026-05-05 01:49 33.25169 -84.92416 13860 ft 323 kts 47°
2026-05-05 01:49 33.26682 -84.90440 13455 ft 320 kts 47°
2026-05-05 01:49 33.28278 -84.88609 13009 ft 318 kts 40°
2026-05-05 01:49 33.29960 -84.86919 12582 ft 315 kts 40°
2026-05-05 01:50 33.31620 -84.85250 12169 ft 311 kts 40°
2026-05-05 01:50 33.33277 -84.83585 12021 ft 310 kts 40°
2026-05-05 01:50 33.34930 -84.81921 11999 ft 310 kts 40°
2026-05-05 01:50 33.36565 -84.80279 12003 ft 310 kts 39°
2026-05-05 01:51 33.38223 -84.78613 12001 ft 311 kts 40°
2026-05-05 01:51 33.39893 -84.76936 12001 ft 311 kts 40°
2026-05-05 01:51 33.41537 -84.75284 12001 ft 310 kts 40°
2026-05-05 01:51 33.43197 -84.73616 12002 ft 311 kts 40°
2026-05-05 01:52 33.44844 -84.71960 11994 ft 311 kts 40°
2026-05-05 01:52 33.46503 -84.70292 11996 ft 311 kts 40°
2026-05-05 01:52 33.48166 -84.68619 12005 ft 311 kts 40°
2026-05-05 01:52 33.49820 -84.66955 11999 ft 311 kts 40°
2026-05-05 01:53 33.51476 -84.65286 11997 ft 311 kts 40°
2026-05-05 01:53 33.53156 -84.63593 12000 ft 311 kts 40°
2026-05-05 01:53 33.54802 -84.61935 11993 ft 310 kts 40°
2026-05-05 01:53 33.56456 -84.60268 12002 ft 311 kts 39°
2026-05-05 01:54 33.58102 -84.58607 11998 ft 311 kts 40°
2026-05-05 01:54 33.59761 -84.56934 12001 ft 310 kts 40°
2026-05-05 01:54 33.61428 -84.55251 12004 ft 311 kts 40°
2026-05-05 01:54 33.63051 -84.53614 12003 ft 296 kts 40°
2026-05-05 01:55 33.64578 -84.52074 12009 ft 279 kts 40°
2026-05-05 01:55 33.66029 -84.50613 11948 ft 261 kts 39°
2026-05-05 01:55 33.67432 -84.49202 11602 ft 263 kts 40°
2026-05-05 01:55 33.68816 -84.47807 11231 ft 261 kts 40°
2026-05-05 01:56 33.70219 -84.46394 10852 ft 260 kts 40°
2026-05-05 01:56 33.71585 -84.45015 10482 ft 258 kts 40°
2026-05-05 01:56 33.72760 -84.43411 10094 ft 256 kts 61°
2026-05-05 01:56 33.73270 -84.41392 9699 ft 251 kts 85°
2026-05-05 01:57 33.73303 -84.39309 9322 ft 249 kts 92°
2026-05-05 01:57 33.73289 -84.37234 8943 ft 248 kts 93°
2026-05-05 01:57 33.73280 -84.35191 8577 ft 247 kts 92°
2026-05-05 01:57 33.73272 -84.33131 8200 ft 245 kts 93°
2026-05-05 01:58 33.73265 -84.31093 7826 ft 243 kts 93°
2026-05-05 01:58 33.73260 -84.29082 7455 ft 242 kts 93°
2026-05-05 01:58 33.73258 -84.27050 7077 ft 241 kts 93°
2026-05-05 01:58 33.73257 -84.25052 6705 ft 239 kts 93°
2026-05-05 01:59 33.73255 -84.23045 6329 ft 238 kts 93°
2026-05-05 01:59 33.73254 -84.21076 5958 ft 237 kts 93°
2026-05-05 01:59 33.73253 -84.19092 5580 ft 236 kts 93°
2026-05-05 01:59 33.73252 -84.17133 5205 ft 235 kts 93°
2026-05-05 02:00 33.73231 -84.15188 4832 ft 232 kts 98°
2026-05-05 02:00 33.72654 -84.13448 4437 ft 222 kts 134°
2026-05-05 02:00 33.71365 -84.12563 4079 ft 210 kts 170°
2026-05-05 02:00 33.69917 -84.12287 3990 ft 211 kts 174°
2026-05-05 02:01 33.68455 -84.12045 3991 ft 212 kts 175°
2026-05-05 02:01 33.67012 -84.12227 3975 ft 209 kts 205°
2026-05-05 02:01 33.66002 -84.13430 3970 ft 212 kts 239°
2026-05-05 02:01 33.65389 -84.15045 3991 ft 214 kts 247°
2026-05-05 02:02 33.65081 -84.16818 3983 ft 216 kts 262°
2026-05-05 02:02 33.65006 -84.18597 3996 ft 211 kts 265°
2026-05-05 02:02 33.64972 -84.20347 3999 ft 210 kts 266°
2026-05-05 02:02 33.64962 -84.22098 3964 ft 210 kts 267°
2026-05-05 02:03 33.64961 -84.23820 3714 ft 201 kts 267°
2026-05-05 02:03 33.64962 -84.25436 3478 ft 187 kts 266°
2026-05-05 02:03 33.64962 -84.26952 3257 ft 178 kts 266°
2026-05-05 02:03 33.64965 -84.28400 3031 ft 167 kts 266°
2026-05-05 02:04 33.64965 -84.29766 2814 ft 160 kts 267°
2026-05-05 02:04 33.64966 -84.31062 2612 ft 149 kts 267°
2026-05-05 02:04 33.64968 -84.32260 2407 ft 138 kts 266°
2026-05-05 02:04 33.64968 -84.33408 2260 ft 134 kts 266°
2026-05-05 02:05 33.64968 -84.34507 2077 ft 130 kts 266°
2026-05-05 02:05 33.64969 -84.35580 1910 ft 127 kts 266°
2026-05-05 02:05 33.64971 -84.36637 1749 ft 125 kts 267°
2026-05-05 02:05 33.64972 -84.37687 1585 ft 124 kts 268°
2026-05-05 02:06 33.64969 -84.38720 1450 ft 127 kts 268°
2026-05-05 02:06 33.64959 -84.39777 1273 ft 125 kts 269°
2026-05-05 02:06 33.64957 -84.40813 1077 ft 124 kts 270°
2026-05-05 02:06 33.64953 -84.41764 1010 ft 101 kts 270°
2026-05-05 02:07 33.64952 -84.42361 1013 ft 47 kts 271°
2026-05-05 02:07 33.64952 -84.42667 1015 ft 23 kts 271°
2026-05-05 02:07 33.64958 -84.42819 1017 ft 13 kts 284°
2026-05-05 02:07 33.65012 -84.42902 1019 ft 10 kts 343°
2026-05-05 02:08 33.65059 -84.42873 1022 ft 9 kts 68°
2026-05-05 02:08 33.65062 -84.42775 1022 ft 12 kts 91°
2026-05-05 02:08 33.65062 -84.42683 1022 ft 12 kts 89°
2026-05-05 02:08 33.65074 -84.42612 1022 ft 7 kts 50°
2026-05-05 02:09 33.65130 -84.42590 1022 ft 10 kts 358°
2026-05-05 02:09 33.65172 -84.42561 1022 ft 9 kts 77°
2026-05-05 02:09 33.65182 -84.42457 1022 ft 15 kts 88°
2026-05-05 02:09 33.65184 -84.42318 1022 ft 10 kts 84°
2026-05-05 02:10 33.65185 -84.42281 1022 ft 0 kts 90°